Simultaneous Nadir Overpasses (SNOs) Predictions

Prediction of SNOs between FY3D and NOAA-19 Satellite Orbit:

Table of predicted SNOs for the next 14.0 days since TLE Epoch: 12/1/2024
Index Date (FY3D) Time (FY3D) Lat,Lon (FY3D) SZA (FY3D ) Date (NOAA-19) Time (NOAA-19) Lat,Lon (NOAA-19) SZA (NOAA-19 ) Distance(km) Time Diff (sec)
1 12/08/2024 22:13:56 75.87,-150.22 98.68 12/08/2024 22:12:43 75.86,-151.08 98.65 23.35 73
2 12/08/2024 23:04:43 -76.01, 16.60 81.19 12/08/2024 23:03:35 -75.99, 16.65 81.21 2.20 68
3 12/08/2024 23:55:29 76.00,-176.07 98.81 12/08/2024 23:54:37 76.00,-176.08 98.81 0.19 52
4 12/09/2024 00:46:13 -76.01, -8.77 81.19 12/09/2024 00:45:32 -76.00, -8.82 81.20 1.82 41
5 12/09/2024 01:36:59 76.00, 158.56 98.82 12/09/2024 01:36:34 76.01, 158.45 98.82 2.93 25
6 12/09/2024 02:27:43 -76.01, -34.14 81.18 12/09/2024 02:27:29 -76.00, -34.29 81.19 4.08 14
7 12/09/2024 03:18:30 76.05, 133.03 98.87 12/09/2024 03:18:30 76.06, 133.15 98.88 3.33 0
8 12/09/2024 04:09:14 -76.05, -59.67 81.13 12/09/2024 04:09:25 -76.05, -59.60 81.13 1.92 11
9 12/09/2024 05:00:00 76.05, 107.66 98.87 12/09/2024 05:00:27 76.06, 107.67 98.89 1.82 27
10 12/09/2024 05:50:44 -76.05, -85.04 81.13 12/09/2024 05:51:22 -76.06, -85.07 81.12 0.96 38
11 12/09/2024 06:41:30 76.05, 82.29 98.88 12/09/2024 06:42:24 76.07, 82.20 98.90 3.23 54
12 12/09/2024 07:32:14 -76.05,-110.41 81.12 12/09/2024 07:33:19 -76.06,-110.54 81.11 3.57 65
13 12/09/2024 08:23:06 76.31, 55.94 99.14 12/09/2024 08:24:16 76.29, 57.56 99.15 42.82 70



Historial Predications of SNOs between FY3D and NOAA-19
